{"data":{"norad_id":64796,"epoch":"2026-09-20T13:19:47.291808Z","epoch_age_seconds":122807,"freshness":"FRESH","line1":"1 64796U 25150G   26263.55540847 -.00005299  00000+0 -43669-3 0  9999","line2":"2 64796  70.0031   3.2112 0003466 272.0968  87.9794 14.98326802 66590","mean_motion":14.98326802,"eccentricity":0.0003466,"inclination_deg":70.0031,"raan_deg":3.2112,"arg_perigee_deg":272.0968,"mean_anomaly_deg":87.9794,"bstar":-0.00043669,"rev_number":6659,"period_min":96.10720425463,"perigee_km":569.65684022948,"apogee_km":574.47472079693,"semimajor_km":6950.2027805132,"source":"CELESTRAK","updated_at":"2026-09-21T09:00:35.443517Z"}}